This is the latest recevied weather packets stored in our database for station/object IR3AS. If no packets are shown the sender has not sent any weather packets the latest 10 day(s).
| Time | Temp. | Humidity | Pressure | Rain* | Wind** | Luminosity | Snow |
|---|---|---|---|---|---|---|---|
| 1777794957 | 8.89° C | 40% | 862.3 hPa | 0 mm | - | - | - |
| 1777794657 | 9.44° C | 41% | 862.4 hPa | 0 mm | - | - | - |
| 1777794357 | 9.44° C | 40% | 862.4 hPa | 0 mm | - | - | - |
| 1777794057 | 9.44° C | 40% | 862.4 hPa | 0 mm | - | - | - |
| 1777793757 | 10° C | 39% | 862.1 hPa | 0 mm | - | - | - |
| 1777793457 | 10° C | 38% | 862 hPa | 0 mm | - | - | - |
| 1777793157 | 10.56° C | 38% | 862 hPa | 0 mm | - | - | - |
| 1777792857 | 10.56° C | 38% | 861.7 hPa | 0 mm | - | - | - |
| 1777792557 | 11.11° C | 38% | 861.8 hPa | 0 mm | - | - | - |
| 1777792257 | 11.11° C | 37% | 861.7 hPa | 0 mm | - | - | - |
| 1777791957 | 11.11° C | 37% | 861.7 hPa | 0 mm | - | - | - |
| 1777791718 | 11.67° C | 35% | 861.7 hPa | 0 mm | - | - | - |
| 1777791657 | 11.67° C | 35% | 861.7 hPa | 0 mm | - | - | - |
| 1777791357 | 12.22° C | 34% | 861.6 hPa | 0 mm | - | - | - |
| 1777791057 | 13.33° C | 33% | 861.4 hPa | 0 mm | - | - | - |
| 1777790757 | 13.89° C | 32% | 861.8 hPa | 0 mm | - | - | - |
| 1777790457 | 15° C | 31% | 861.6 hPa | 0 mm | - | - | - |
| 1777790158 | 15° C | 33% | 861.2 hPa | 0 mm | - | - | - |
| 1777789858 | 13.89° C | 34% | 861.4 hPa | 0 mm | - | - | - |
| 1777789558 | 12.78° C | 36% | 861.3 hPa | 0 mm | - | - | - |
| 1777789258 | 11.11° C | 36% | 861.1 hPa | 0 mm | - | - | - |
| 1777788958 | 11.11° C | 38% | 861 hPa | 0 mm | - | - | - |
| 1777788658 | 11.11° C | 36% | 861 hPa | 0 mm | - | - | - |
| 1777788358 | 11.11° C | 36% | 860.9 hPa | 0 mm | - | - | - |
| 1777788058 | 11.11° C | 36% | 861 hPa | 0 mm | - | - | - |
* Rain latest hour (hover to see other rain measurements)
** Current wind speed in m/s (hover to see current wind gust speed)